[[{"header":{"parameterUnit":"m.s-1","parameterCategory":1,"la1":30.2991,"la2":30.254,"lo1":-89.0895,"lo2":-89.0444,"dy":0.0017,"dx":0.0017,"nx":28,"ny":28,"refTime":"2024-03-11T21:00:00:Z","depth":0,"parameterNumber":2,"parameterNumberName":"U-component_of_WINDS"},"data":[0,0,0,0,0,0,0,0,0,0,0,0,0,0,0,0,0,0,0,0,0,0,0,0,0,0,0,0,0,0,0,0,0,0,0,0,0,0,0,0,0,0,0,0,0,0,0,0,0,0,0,0,0,0,0,0,0,0,0.4774,0.4774,0,0.4774,0.4774,0.4774,0.4797,0.4798,0.4798,0.4799,0.4797,0.4796,0.4796,0,0,0,0,0,0,0,0,0,0,0,0,0,0.4791,0.4791,0.4774,0.4774,0.4774,0.4774,0.4774,0.4774,0.4797,0.4798,0.4798,0.4799,0.4797,0.4796,0.4795,0,0,0,0,0,0,0,0,0,0,0,0,0,0.4787,0.4791,0.4774,0.4786,0.4787,0.4774,0.4774,0.4774,0.4797,0.4798,0.4799,0.4799,0.4797,0.4796,0.4795,0.4771,0,0,0.4793,0.4792,0,0,0,0,0,0,0,0,0.4787,0.4786,0.4784,0.4785,0.4786,0.4787,0.478,0.4773,0.4797,0.4793,0.4799,0.48,0.4792,0.4792,0.479,0.4771,0.4771,0.4792,0.4792,0.4792,0.4791,0,0,0,0,0,0,0,0.4787,0.4786,0.4774,0.4784,0.4785,0.479,0.479,0.4778,0.4787,0.4793,0.4795,0.4795,0.4793,0.4791,0.479,0.4771,0.4792,0.4792,0.4791,0.4791,0.4731,0.473,0,0,0,0,0,0,0.4786,0.4786,0.4774,0.4774,0.4789,0.4789,0.4789,0.4785,0.4788,0.4789,0.4794,0.4796,0.4792,0.4791,0.479,0.4761,0.4792,0.4791,0.479,0.4732,0.4731,0.473,0,0,0,0,0,0,0.4787,0.4785,0.4774,0.4781,0.478,0.4788,0.4783,0.4785,0.4783,0.4788,0.479,0.479,0.4793,0.4791,0.4776,0.4761,0.479,0.4789,0.4734,0.4732,0.4731,0.4703,0,0,0,0,0,0,0.4787,0.4785,0.4777,0.478,0.4779,0.476,0.4782,0.4784,0.4781,0.4784,0.4785,0.4786,0.4793,0.4777,0.4775,0.476,0.4789,0.4735,0.4733,0.4731,0.4705,0.4701,0.4697,0,0,0,0,0,0.4788,0.4769,0.4776,0.4774,0.4769,0.476,0.4759,0.4768,0.478,0.4771,0.4774,0.4786,0.4764,0.4775,0.4773,0.4758,0.4736,0.4733,0.4731,0.4707,0.4702,0.4697,0,0,0,0,0,0,0.4762,0.4769,0.4778,0.476,0.4759,0.4763,0.4752,0.4762,0.4758,0.476,0.4771,0.4771,0.4753,0.4754,0.4767,0.4734,0.4752,0.4749,0.4734,0.4729,0.4725,0.4724,0.4788,0,0,0,0,0,0.4755,0.4747,0.4754,0.4737,0.4736,0.4744,0.4741,0.4748,0.4747,0.4747,0.4749,0.4748,0.474,0.4735,0.4728,0.4706,0.4706,0.4695,0.4691,0.4687,0.4684,0.4671,0.4665,0.4723,0.4723,0.4723,0,0,0.4739,0.4742,0.4736,0.4732,0.4732,0.4723,0.4744,0.4734,0.4727,0.4745,0.473,0.4732,0.4731,0.4711,0.4703,0.4712,0.4668,0.4684,0.4681,0.468,0.4668,0.4662,0.4658,0.4721,0.4721,0.4722,0,0,0.4705,0.4707,0.4693,0.4693,0.4693,0.4699,0.4695,0.4698,0.47,0.4686,0.4699,0.4691,0.4678,0.4676,0.4673,0.4638,0.4648,0.4636,0.4613,0.46,0.4596,0.4592,0.4578,0.4573,0.4633,0.4633,0.4633,0,0.4685,0.4673,0.4684,0.4673,0.467,0.4687,0.4672,0.4671,0.4669,0.4666,0.4676,0.466,0.466,0.464,0.4631,0.4629,0.4624,0.4635,0.4596,0.4592,0.4588,0.4575,0.457,0.4631,0.4631,0.4632,0.4632,0,0.4647,0.4639,0.4627,0.4625,0.4621,0.4608,0.4616,0.4611,0.4618,0.4622,0.4606,0.4608,0.4601,0.4597,0.4604,0.4577,0.4582,0.4594,0.4611,0.4581,0.4569,0.4564,0.4629,0.463,0.463,0.463,0,0,0.4597,0.4602,0.4597,0.4596,0.4597,0.459,0.4577,0.4571,0.4566,0.4564,0.4552,0.4541,0.4551,0.4548,0.4555,0.4544,0.4514,0.4557,0.4557,0.4547,0.4482,0.4472,0.4466,0.4521,0.452,0.452,0.4482,0,0.4563,0.4542,0.4552,0.4529,0.452,0.4536,0.4525,0.4524,0.4527,0.452,0.4523,0.4514,0.453,0.4528,0.4517,0.452,0.4501,0.4523,0.4509,0.4508,0.4507,0.446,0.445,0.4414,0.4477,0.4476,0.4476,0,0.452,0.4517,0.4493,0.4496,0.4492,0.4482,0.4477,0.447,0.4469,0.4472,0.4468,0.4478,0.4464,0.4482,0.4463,0.4477,0.4472,0.4473,0.4471,0.4469,0.4489,0.4455,0.4404,0.4397,0.4469,0.4469,0.447,0,0.4484,0.4473,0.4458,0.4456,0.4459,0.4451,0.4452,0.4452,0.4447,0.4443,0.4439,0.4433,0.4429,0.4423,0.443,0.4443,0.4409,0.4428,0.441,0.4409,0.4401,0.4401,0.4346,0.44,0.44,0.44,0.44,0,0.4444,0.4428,0.4441,0.4431,0.4414,0.4426,0.4408,0.441,0.441,0.44,0.4414,0.4404,0.4414,0.4405,0.441,0.4392,0.4391,0.4392,0.4393,0.439,0.4389,0.4385,0.4387,0.4399,0.4399,0.4399,0.44,0,0.44,0.4408,0.4391,0.4396,0.4396,0.4383,0.4386,0.4376,0.4381,0.4368,0.4366,0.4372,0.4362,0.4369,0.4358,0.4362,0.4338,0.4343,0.4338,0.4339,0.432,0.4321,0.4259,0.425,0.4311,0.4311,0.431,0,0.4373,0.4361,0.4364,0.4359,0.4359,0.435,0.4346,0.4356,0.4351,0.4348,0.4339,0.433,0.4323,0.4305,0.4308,0.43,0.4305,0.4284,0.4303,0.43,0.4302,0.4302,0.43,0.4279,0.4278,0.4278,0.4277,0,0.4323,0.4328,0.4322,0.4316,0.4311,0.4307,0.4304,0.4299,0.4309,0.4302,0.4292,0.4287,0.4277,0.4267,0.426,0.4259,0.4269,0.4271,0.4266,0.4262,0.4258,0.4258,0.4325,0.4272,0.4273,0.4273,0.4273,0.4273,0.4286,0.4276,0.4276,0.4268,0.4268,0.4265,0.4255,0.4259,0.4251,0.4244,0.4251,0.4238,0.4236,0.4228,0.4226,0.4215,0.4224,0.4217,0.4215,0.4213,0.4209,0.4262,0.4214,0.4215,0.4215,0.4215,0.4215,0,0.4236,0.4237,0.423,0.4226,0.4219,0.4231,0.4228,0.4221,0.421,0.4208,0.4202,0.4189,0.418,0.4182,0.4173,0.4164,0.4168,0.4161,0.4161,0.4161,0.4203,0.4207,0.4158,0.4158,0.4158,0.4158,0.4158,0.4158,0.4209,0.4193,0.4197,0.418,0.4181,0.417,0.4167,0.4163,0.4162,0.4148,0.414,0.4142,0.4142,0.4133,0.4124,0.4125,0.412,0.4111,0.4113,0.4152,0.4158,0.4163,0.4167,0.411,0.411,0.4072,0.4071,0.4071]},{"header":{"parameterUnit":"m.s-1","parameterCategory":1,"la1":30.2991,"la2":30.254,"lo1":-89.0895,"lo2":-89.0444,"dy":0.0017,"dx":0.0017,"nx":28,"ny":28,"refTime":"2024-03-11T21:00:00:Z","depth":0,"parameterNumber":3,"parameterNumberName":"V-component_of_WINDS"},"data":[0,0,0,0,0,0,0,0,0,0,0,0,0,0,0,0,0,0,0,0,0,0,0,0,0,0,0,0,0,0,0,0,0,0,0,0,0,0,0,0,0,0,0,0,0,0,0,0,0,0,0,0,0,0,0,0,0,0,0.3396,0.3396,0,0.334,0.334,0.3339,0.3282,0.3281,0.328,0.328,0.322,0.3219,0.3218,0,0,0,0,0,0,0,0,0,0,0,0,0,0.3452,0.3452,0.3397,0.3396,0.3395,0.334,0.334,0.3339,0.3282,0.3281,0.328,0.3279,0.322,0.3219,0.3218,0,0,0,0,0,0,0,0,0,0,0,0,0,0.3415,0.3451,0.3397,0.336,0.3357,0.334,0.334,0.3339,0.3282,0.3281,0.328,0.3279,0.3221,0.3219,0.3218,0.3233,0,0,0.3214,0.3213,0,0,0,0,0,0,0,0,0.3418,0.3413,0.3366,0.3363,0.3358,0.3317,0.3337,0.3303,0.3283,0.331,0.328,0.3278,0.3253,0.3249,0.3241,0.323,0.3227,0.3214,0.3213,0.3212,0.3212,0,0,0,0,0,0,0,0.342,0.3415,0.3374,0.3366,0.3361,0.3346,0.3339,0.3331,0.3289,0.3308,0.3304,0.3298,0.3251,0.3242,0.3239,0.3226,0.3214,0.3213,0.3212,0.3211,0.3223,0.3224,0,0,0,0,0,0,0.3429,0.3418,0.3376,0.3372,0.3386,0.3346,0.3339,0.3331,0.3289,0.3281,0.3299,0.3295,0.3245,0.3241,0.3237,0.325,0.3212,0.3211,0.321,0.3222,0.3223,0.3224,0,0,0,0,0,0,0.343,0.3425,0.3378,0.3394,0.3387,0.3346,0.3339,0.3331,0.3322,0.3282,0.3274,0.3298,0.3244,0.3239,0.3234,0.3247,0.3211,0.3209,0.3221,0.3222,0.3224,0.3278,0,0,0,0,0,0,0.3432,0.3426,0.3432,0.3395,0.3386,0.3377,0.3339,0.3331,0.3321,0.3316,0.3279,0.3272,0.3243,0.3236,0.3233,0.3245,0.3208,0.3219,0.3221,0.3223,0.3275,0.3281,0.3287,0,0,0,0,0,0.3434,0.3449,0.3433,0.3428,0.3393,0.3378,0.3373,0.334,0.3322,0.3327,0.3301,0.3273,0.3247,0.3236,0.3232,0.3244,0.3218,0.3221,0.3223,0.3272,0.328,0.3286,0,0,0,0,0,0,0.3489,0.3444,0.3425,0.3429,0.3408,0.3369,0.3374,0.335,0.3333,0.3329,0.3287,0.328,0.328,0.3261,0.325,0.3255,0.3228,0.323,0.3267,0.3274,0.328,0.3284,0.3207,0,0,0,0,0,0.3502,0.3494,0.3455,0.3462,0.3452,0.3415,0.3408,0.3384,0.336,0.3351,0.3324,0.3302,0.3288,0.328,0.3266,0.3272,0.3262,0.3277,0.3284,0.3289,0.329,0.3291,0.3297,0.3233,0.3233,0.3233,0,0,0.3527,0.3502,0.35,0.3472,0.3453,0.3446,0.3408,0.3402,0.3396,0.335,0.3344,0.3324,0.3295,0.3296,0.3295,0.3281,0.3306,0.3292,0.3296,0.3295,0.3294,0.33,0.3306,0.3234,0.3234,0.3234,0,0,0.357,0.3551,0.3554,0.3536,0.3508,0.3483,0.3484,0.3448,0.3433,0.3427,0.3392,0.3383,0.3361,0.3342,0.333,0.3365,0.3338,0.3361,0.3392,0.3393,0.3398,0.3403,0.3414,0.3419,0.3363,0.3363,0.3363,0,0.3606,0.3594,0.3559,0.3554,0.3543,0.3502,0.3504,0.3488,0.3456,0.3449,0.3433,0.3404,0.3382,0.3377,0.3386,0.3378,0.3376,0.3365,0.3401,0.3405,0.3408,0.3418,0.3423,0.3366,0.3366,0.3366,0.3365,0,0.3638,0.363,0.3636,0.3607,0.3596,0.3595,0.3559,0.3552,0.3529,0.3506,0.3499,0.3471,0.345,0.3447,0.3424,0.3439,0.343,0.3409,0.3381,0.3418,0.3427,0.3431,0.337,0.3369,0.3368,0.3368,0,0,0.3714,0.3665,0.3668,0.3654,0.362,0.3612,0.3609,0.3589,0.3583,0.3563,0.3558,0.354,0.3519,0.3505,0.348,0.3481,0.3509,0.3459,0.3457,0.3468,0.3522,0.3538,0.3544,0.3492,0.3493,0.3493,0.3524,0,0.375,0.3743,0.3711,0.3712,0.3704,0.3664,0.3661,0.364,0.3617,0.3606,0.3581,0.3568,0.3543,0.3534,0.3533,0.3506,0.3519,0.3504,0.3486,0.3486,0.3494,0.3548,0.3566,0.3596,0.3527,0.3528,0.3528,0,0.3792,0.3774,0.3776,0.3741,0.3736,0.3734,0.3712,0.3703,0.3676,0.366,0.3644,0.3616,0.3609,0.3584,0.3573,0.3563,0.3554,0.3539,0.354,0.3536,0.3509,0.3546,0.3605,0.361,0.3534,0.3533,0.3533,0,0.3846,0.3823,0.382,0.3809,0.3769,0.3768,0.3751,0.3724,0.3714,0.3694,0.3687,0.3667,0.3656,0.364,0.3607,0.3592,0.3599,0.3572,0.3585,0.3585,0.3587,0.3588,0.3646,0.3583,0.3583,0.3583,0.3583,0,0.389,0.3892,0.3844,0.3842,0.3843,0.3805,0.3807,0.3786,0.3762,0.3754,0.3719,0.3712,0.3669,0.3657,0.3631,0.3625,0.3621,0.3606,0.3599,0.3609,0.3611,0.3602,0.3599,0.3584,0.3584,0.3584,0.3583,0,0.395,0.3918,0.3913,0.3875,0.3865,0.3867,0.3834,0.3831,0.3806,0.3797,0.3793,0.3754,0.3739,0.3704,0.3679,0.3661,0.3661,0.3649,0.3671,0.3666,0.368,0.3679,0.3734,0.3739,0.3674,0.3675,0.3676,0,0.398,0.398,0.3943,0.3936,0.392,0.3909,0.3898,0.3861,0.3851,0.3821,0.3821,0.3803,0.3786,0.3763,0.3731,0.3712,0.3698,0.3719,0.3695,0.3704,0.3697,0.3697,0.3696,0.3724,0.3725,0.3725,0.3726,0,0.4036,0.402,0.4006,0.3986,0.3975,0.3957,0.3938,0.3934,0.3892,0.3882,0.3866,0.3853,0.3828,0.3809,0.3785,0.3766,0.3739,0.3734,0.3735,0.3745,0.3757,0.375,0.3684,0.3733,0.3732,0.3731,0.3731,0.3731,0.4081,0.4079,0.4052,0.4038,0.4019,0.4002,0.3996,0.3971,0.3957,0.3934,0.3913,0.3899,0.3871,0.3835,0.3818,0.3806,0.3792,0.3795,0.3795,0.3796,0.38,0.376,0.3801,0.3801,0.3801,0.38,0.38,0,0.4134,0.4114,0.4102,0.4076,0.4064,0.404,0.4017,0.4009,0.3997,0.3974,0.3959,0.394,0.3922,0.3889,0.3868,0.3864,0.3851,0.386,0.3859,0.3855,0.3814,0.3814,0.387,0.387,0.387,0.387,0.387,0.387,0.416,0.4156,0.4136,0.4122,0.4102,0.4089,0.4078,0.4061,0.4042,0.4023,0.4008,0.3987,0.396,0.3936,0.3918,0.3909,0.3903,0.3915,0.3902,0.3864,0.3858,0.3852,0.3851,0.3914,0.3914,0.3943,0.3944,0.3944]}]]